www.srh.weather.gov   
NOAA logo - Click to go to the NOAA homepage   NWS logo
Weather Roundup
Enter Your "City, ST" or zip code   
Current Version              Previous Version:    01  02  03  04  05  06  07  08  09  10  11  12  13  14  15  16  17  18  19  20  21  22  23  24  25  26  27  28  29  30  
   31  32  33  34  35  36  37  38  39  40  41  42  43  44  45  46  47  48  49  50  51  52  53  54  55  56  57  58  59  60  
[Printable]
604
NZUS93 KARX 021210
HRRWXR

CURRENT HOURLY OBSERVATIONS ACROSS
MUCH OF THE UPPER MISSISSIPPI VALLEY
NATIONAL WEATHER SERVICE LA CROSSE WI
700 AM CDT TUE SEP 02 2014


...SOUTHEAST MINNESOTA...


CITY           SKY/WX    TMP DP  RH WIND       PRES   REMARKS
ROCHESTER      CLOUDY    60  56  86 SW9       29.92R
ROCHESTER/MAYO CLOUDY    62  54  75 CALM      29.89S
WINONA         CLOUDY    61  57  88 CALM      29.88R
AUSTIN         RAIN      61  55  82 SW5       29.92R
ALBERT LEA     CLOUDY    61  57  88 CALM      29.91F
DODGE CENTER   CLOUDY    63  55  77 NW15      29.90R
PRESTON        CLOUDY    60  60 100 CALM      29.93R
OWATONNA       LGT RAIN  61  55  82 SE3       29.88F
FARIBAULT      CLOUDY    63  55  77 W7        29.89S
$$

...ELSEWHERE IN MINNESOTA...


CITY           SKY/WX    TMP DP  RH WIND       PRES   REMARKS
MINNEAPOLIS    CLOUDY    62  58  86 SW9       29.87R
INTNL FALLS    CLEAR     46  46 100 SW7       29.77R
DULUTH         PTCLDY    51  48  89 W5        29.82R
RED WING       LGT RAIN  63  61  94 W3        29.87R
REDWOOD FALLS  PTCLDY    59  55  87 W7        29.89R
MANKATO        MOCLDY    59  54  82 CALM      29.89R
WORTHINGTON    CLEAR     55  54  94 W6        29.93S
FAIRMONT       CLOUDY    57  52  82 SW3       29.91R
$$

...SOUTHWEST WISCONSIN...


CITY           SKY/WX    TMP DP  RH WIND       PRES   REMARKS
LA CROSSE      CLOUDY    62  60  93 S9        29.87R
PRAIRIE DU CHI RAIN      61  60  95 NW7       29.92R
BOSCOBEL       FOG       59  58  96 CALM      29.89R VSB<1/4
LONE ROCK      FOG       61  57  87 CALM      29.90R VSB 1/4
PLATTEVILLE    PTCLDY    59  58  97 CALM      29.91R
FORT MC COY    MOCLDY    53  53  97 CALM      29.88R
CAMP DOUGLAS   MOCLDY    55  55 100 SE3       29.87R
VIROQUA        FAIR      59  59 100 SW3       29.90R
WIS DELLS      CLEAR     58  56  94 CALM      29.88R
$$

...ELSEWHERE IN WISCONSIN...


CITY           SKY/WX    TMP DP  RH WIND       PRES   REMARKS
MILWAUKEE      PTCLDY    64  61  90 CALM      29.87S
MADISON        PTCLDY    58  57  97 CALM      29.88R
GREEN BAY      CLEAR     55  55 100 CALM      29.85R
EAU CLAIRE     CLOUDY    60  58  92 SW9       29.86R
BLACK RVR FLS  FAIR      54  54 100 S3        29.85R
MEDFORD        CLOUDY    56  56  97 NW7       29.86R
WAUSAU         PTCLDY    58  56  93 S5        29.84R
WIS RAPIDS     PTCLDY    54  54 100 CALM      29.87S
MARSHFIELD     MOCLDY    56  54  93 SW6       29.85S
RICE LAKE      CLOUDY    56  55  95 CALM      29.87R FOG
$$

...NORTHEAST IOWA...


CITY           SKY/WX    TMP DP  RH WIND       PRES   REMARKS
WATERLOO       LGT RAIN  59  57  93 MISG      29.91R
DUBUQUE        CLOUDY    60  59  96 CALM      29.90R
DECORAH        RAIN      59  57  94 NW6G13    29.93R
MASON CITY     MOCLDY    59  57  93 N7        29.92F
CHARLES CITY   CLOUDY    59  57  94 N9G15     29.93S
OELWEIN        CLOUDY    61  59  94 NW8       29.95R
$$

...ELSEWHERE IN IOWA...


CITY           SKY/WX    TMP DP  RH WIND       PRES   REMARKS
DES MOINES     PTCLDY    62  58  86 NW5       29.92R
IOWA CITY      PTCLDY    60  59  96 CALM      29.91R
FORT DODGE     PTCLDY    57  55  94 CALM      29.93S
MARSHALLTOWN   MOCLDY    61  59  93 N7        29.92R
CEDAR RAPIDS   FAIR      61  60  97 NW6       29.90R
$$

...NORTHERN ILLINOIS...


CITY           SKY/WX    TMP DP  RH WIND       PRES   REMARKS
CHICAGO-OHARE  MOCLDY    68  63  84 CALM      29.87S
DUPAGE         PTCLDY    64  62  93 CALM      29.88R
CHICAGO-MIDWAY MOCLDY    69  67  93 CALM      29.88R
MOLINE         PTCLDY    61  60  97 CALM      29.90R FOG
ROCKFORD       FOG       61  59  93 CALM      29.90F VSB 1/8
STERLING       CLOUDY    61  57  88 CALM      29.89R VSB<1/4
PEORIA         LGT RAIN  72  68  87 SW6       29.90R FOG
$$

NOTE: "FAIR" INDICATES FEW OR NO CLOUDS BELOW 12,000 FEET WITH NO
SIGNIFICANT WEATHER AND/OR OBSTRUCTIONS TO VISIBILITY. WIND
SPEEDS ARE IN MILES-PER-HOUR.



National Weather Service
Disclaimer
Last Modified: August 31, 2005
Privacy Policy